Voltar ao catálogo

COSMOS 941

AtivoMilitarLEO
NORAD 10287·PAYLOAD·🇷🇺 Russia

Lançado Aug 24, 1977 de Plesetsk Cosmodrome

Loading…

Próximas Passagens (próximas 24 horas)

TLE

AtualizadoSource: Space-Track

Época: Sep 14, 2026, 13:03 UTC

1 10287U 77079C   26257.54431625 -.00000022  00000-0 -36472-4 0  9992
2 10287  74.0217 272.3133 0031829 213.0797 316.9704 12.56553398221264

Acompanhe COSMOS 941 em tempo real com AllMySat

Download on the App Store